| time (UTC) | temp C | wind direction | speed KPH | gust KPH | rain 1hr cm | rain 24hr cm | rain mn cm | humidity % | barometer mb |
| 20260507155019 | 13 | 195 | 8.0 | 16.1 | 0.00 | 1.37 | 0.25 | 73 | 1004.4 |
| 20260507154751 | 13 | 128 | 4.8 | 12.9 | 0.00 | 1.37 | 0.25 | 74 | 1004.5 |
| 20260507154019 | 13 | 173 | 4.8 | 11.3 | 0.00 | 1.37 | 0.25 | 70 | 1004.4 |
| 20260507153525 | 13 | 54 | 4.8 | 11.3 | 0.00 | 1.37 | 0.25 | 73 | 1004.6 |
| 20260507153019 | 13 | 309 | 3.2 | 8.0 | 0.00 | 1.37 | 0.25 | 70 | 1004.7 |
| 20260507152520 | 13 | 100 | 1.6 | 8.0 | 0.00 | 1.37 | 0.25 | 71 | 1004.7 |
| 20260507152019 | 13 | 42 | 3.2 | 12.9 | 0.00 | 1.37 | 0.25 | 65 | 1004.7 |
| 20260507151520 | 13 | 38 | 3.2 | 12.9 | 0.00 | 1.37 | 0.25 | 68 | 1004.8 |
| 20260507151020 | 13 | 0 | 3.2 | 12.9 | 0.00 | 1.37 | 0.25 | 67 | 1004.8 |
| 20260507150523 | 13 | 314 | 3.2 | 11.3 | 0.00 | 1.37 | 0.25 | 72 | 1004.7 |
| 20260507150519 | 13 | 315 | 3.2 | 12.9 | 0.00 | 1.37 | 0.25 | 70 | 1004.9 |
| 20260507145517 | 13 | 328 | 3.2 | 12.9 | 0.00 | 1.37 | 0.25 | 75 | 1004.6 |
| 20260507145017 | 13 | 304 | 3.2 | 12.9 | 0.00 | 1.37 | 0.25 | 77 | 1004.6 |
| 20260507144517 | 13 | 300 | 3.2 | 9.7 | 0.00 | 1.37 | 0.25 | 77 | 1004.7 |
| 20260507144249 | 12 | 321 | 3.2 | 14.5 | 0.00 | 1.37 | 0.25 | 77 | 1004.8 |
| 20260507143517 | 12 | 312 | 3.2 | 14.5 | 0.00 | 1.37 | 0.25 | 76 | 1004.8 |
| 20260507143018 | 12 | 312 | 4.8 | 14.5 | 0.00 | 1.37 | 0.25 | 75 | 1004.8 |
| 20260507142517 | 12 | 317 | 3.2 | 14.5 | 0.00 | 1.37 | 0.25 | 77 | 1004.9 |
| 20260507142018 | 12 | 288 | 3.2 | 11.3 | 0.00 | 1.37 | 0.25 | 78 | 1004.9 |
| 20260507141518 | 12 | 286 | 3.2 | 11.3 | 0.00 | 1.37 | 0.25 | 81 | 1005.2 |
| 20260507141018 | 11 | 280 | 3.2 | 12.9 | 0.00 | 1.37 | 0.25 | 82 | 1005.2 |
| 20260507140524 | 11 | 252 | 3.2 | 12.9 | 0.00 | 1.37 | 0.25 | 84 | 1005.4 |
| 20260507140519 | 11 | 257 | 1.6 | 12.9 | 0.00 | 1.37 | 0.25 | 82 | 1005.1 |
| 20260507135518 | 11 | 294 | 3.2 | 12.9 | 0.00 | 1.37 | 0.25 | 85 | 1005.4 |
| 20260507135017 | 11 | 300 | 3.2 | 11.3 | 0.00 | 1.37 | 0.25 | 88 | 1005.4 |
| 20260507134513 | 10 | 290 | 3.2 | 11.3 | 0.00 | 1.37 | 0.25 | 88 | 1005.2 |
| 20260507134247 | 10 | 288 | 1.6 | 8.0 | 0.00 | 1.37 | 0.25 | 88 | 1005.2 |
| 20260507133513 | 9 | 287 | 1.6 | 12.9 | 0.00 | 1.37 | 0.25 | 89 | 1005.7 |
| 20260507133011 | 9 | 287 | 3.2 | 12.9 | 0.00 | 1.37 | 0.25 | 90 | 1005.8 |
| 20260507132513 | 8 | 267 | 4.8 | 12.9 | 0.00 | 1.37 | 0.25 | 90 | 1006.0 |
| 20260507132241 | 8 | 309 | 4.8 | 12.9 | 0.00 | 1.37 | 0.25 | 90 | 1005.8 |
| 20260507131513 | 8 | 296 | 4.8 | 11.3 | 0.00 | 1.37 | 0.25 | 90 | 1005.7 |
| 20260507131013 | 8 | 299 | 3.2 | 11.3 | 0.00 | 1.37 | 0.25 | 90 | 1005.3 |
| 20260507130511 | 8 | 313 | 3.2 | 11.3 | 0.00 | 1.37 | 0.25 | 91 | 1005.1 |
| 20260507130012 | 8 | 304 | 4.8 | 11.3 | 0.00 | 1.37 | 0.25 | 91 | 1005.2 |
| 20260507125512 | 8 | 279 | 3.2 | 11.3 | 0.00 | 1.37 | 0.25 | 91 | 1005.2 |
| 20260507125013 | 8 | 298 | 3.2 | 9.7 | 0.00 | 1.37 | 0.25 | 91 | 1005.2 |
| 20260507124510 | 8 | 314 | 3.2 | 11.3 | 0.00 | 1.37 | 0.25 | 92 | 1005.4 |
| 20260507124010 | 8 | 313 | 3.2 | 11.3 | 0.00 | 1.37 | 0.25 | 92 | 1005.8 |
| 20260507123509 | 8 | 301 | 3.2 | 11.3 | 0.00 | 1.37 | 0.25 | 92 | 1005.3 |
| 20260507123243 | 8 | 301 | 3.2 | 11.3 | 0.00 | 1.37 | 0.25 | 92 | 1005.4 |
| 20260507122509 | 8 | 288 | 3.2 | 9.7 | 0.00 | 1.37 | 0.25 | 93 | 1005.2 |
| 20260507122010 | 8 | 313 | 3.2 | 8.0 | 0.00 | 1.37 | 0.25 | 93 | 1005.0 |
| 20260507121509 | 8 | 314 | 3.2 | 12.9 | 0.00 | 1.37 | 0.25 | 93 | 1005.0 |
| 20260507121241 | 7 | 314 | 4.8 | 12.9 | 0.00 | 1.37 | 0.25 | 93 | 1004.9 |
| 20260507120511 | 7 | 327 | 6.4 | 12.9 | 0.00 | 1.37 | 0.25 | 93 | 1005.1 |
| 20260507120009 | 7 | 299 | 6.4 | 12.9 | 0.00 | 1.37 | 0.25 | 93 | 1005.3 |
| 20260507115510 | 7 | 296 | 6.4 | 14.5 | 0.00 | 1.37 | 0.25 | 93 | 1005.3 |
| 20260507115007 | 7 | 302 | 4.8 | 14.5 | 0.00 | 1.37 | 0.25 | 93 | 1005.3 |
| 20260507114508 | 7 | 310 | 6.4 | 14.5 | 0.00 | 1.37 | 0.25 | 93 | 1005.4 |
| 20260507114238 | 7 | 309 | 6.4 | 14.5 | 0.00 | 1.37 | 0.25 | 93 | 1005.3 |
| 20260507113740 | 7 | 298 | 6.4 | 14.5 | 0.00 | 1.37 | 0.25 | 93 | 1005.7 |
| 20260507113241 | 7 | 308 | 6.4 | 14.5 | 0.00 | 1.37 | 0.25 | 93 | 1005.5 |
| 20260507112507 | 7 | 302 | 4.8 | 14.5 | 0.00 | 1.37 | 0.25 | 94 | 1005.4 |
| 20260507112008 | 7 | 319 | 4.8 | 11.3 | 0.00 | 1.37 | 0.25 | 94 | 1005.4 |
| 20260507111507 | 7 | 303 | 3.2 | 11.3 | 0.00 | 1.37 | 0.25 | 94 | 1005.9 |
| 20260507111008 | 7 | 277 | 3.2 | 11.3 | 0.00 | 1.37 | 0.25 | 94 | 1005.8 |
| 20260507110507 | 7 | 277 | 3.2 | 11.3 | 0.00 | 1.37 | 0.25 | 94 | 1005.6 |
| 20260507110238 | 7 | 277 | 3.2 | 12.9 | 0.00 | 1.37 | 0.25 | 94 | 1005.6 |
| 20260507105507 | 7 | 277 | 3.2 | 12.9 | 0.00 | 1.37 | 0.25 | 94 | 1005.6 |
| 20260507105237 | 7 | 294 | 1.6 | 8.0 | 0.00 | 1.37 | 0.25 | 94 | 1005.6 |
| 20260507105125 | 7 | 296 | 1.6 | 8.0 | 0.00 | 1.37 | 0.25 | 94 | 1005.1 |
| 20260507104006 | 7 | 295 | 3.2 | 9.7 | 0.00 | 1.37 | 0.25 | 94 | 1005.1 |
| 20260507103736 | 7 | 284 | 4.8 | 11.3 | 0.00 | 1.37 | 0.25 | 94 | 1005.0 |
| 20260507103237 | 7 | 324 | 4.8 | 12.9 | 0.00 | 1.37 | 0.25 | 94 | 1005.0 |
| 20260507102505 | 7 | 302 | 3.2 | 12.9 | 0.00 | 1.37 | 0.25 | 94 | 1004.8 |
| 20260507102007 | 7 | 302 | 3.2 | 12.9 | 0.00 | 1.37 | 0.25 | 94 | 1004.6 |
| 20260507101504 | 7 | 306 | 1.6 | 14.5 | 0.00 | 1.37 | 0.25 | 94 | 1004.2 |
| 20260507101002 | 7 | 311 | 1.6 | 14.5 | 0.00 | 1.37 | 0.25 | 94 | 1004.6 |
| 20260507100503 | 7 | 311 | 3.2 | 14.5 | 0.00 | 1.37 | 0.25 | 94 | 1004.6 |
| 20260507100003 | 7 | 277 | 3.2 | 14.5 | 0.00 | 1.37 | 0.25 | 94 | 1004.4 |
| 20260507095504 | 7 | 267 | 3.2 | 14.5 | 0.00 | 1.37 | 0.25 | 94 | 1004.4 |
| 20260507095003 | 7 | 296 | 3.2 | 19.3 | 0.00 | 1.37 | 0.25 | 94 | 1004.3 |
| 20260507094503 | 7 | 315 | 4.8 | 19.3 | 0.03 | 1.37 | 0.25 | 94 | 1004.3 |
| 20260507094002 | 7 | 313 | 8.0 | 19.3 | 0.03 | 1.37 | 0.25 | 94 | 1004.4 |
| 20260507093504 | 7 | 305 | 9.7 | 19.3 | 0.03 | 1.37 | 0.25 | 94 | 1004.4 |
| 20260507093004 | 7 | 288 | 8.0 | 19.3 | 0.03 | 1.37 | 0.25 | 94 | 1004.5 |
| 20260507092501 | 7 | 314 | 6.4 | 20.9 | 0.03 | 1.37 | 0.25 | 94 | 1004.3 |
| 20260507092002 | 7 | 302 | 8.0 | 20.9 | 0.03 | 1.37 | 0.25 | 94 | 1004.3 |
| 20260507091501 | 7 | 315 | 9.7 | 20.9 | 0.03 | 1.37 | 0.25 | 94 | 1004.6 |
| 20260507091000 | 8 | 294 | 9.7 | 20.9 | 0.03 | 1.37 | 0.25 | 94 | 1004.5 |
| 20260507090735 | 8 | 284 | 8.0 | 19.3 | 0.03 | 1.37 | 0.25 | 94 | 1004.8 |
| 20260507090000 | 8 | 306 | 6.4 | 14.5 | 0.03 | 1.37 | 0.25 | 94 | 1004.6 |
| 20260507085501 | 8 | 309 | 6.4 | 14.5 | 0.03 | 1.37 | 0.25 | 94 | 1004.6 |
| 20260507085001 | 8 | 309 | 8.0 | 17.7 | 0.03 | 1.37 | 0.25 | 94 | 1004.2 |
| 20260507084502 | 8 | 300 | 8.0 | 17.7 | 0.00 | 1.35 | 0.23 | 94 | 1004.2 |
| 20260507084002 | 8 | 291 | 6.4 | 17.7 | 0.00 | 1.35 | 0.23 | 94 | 1003.9 |
| 20260507083731 | 8 | 306 | 6.4 | 17.7 | 0.00 | 1.35 | 0.23 | 94 | 1003.8 |
| 20260507083006 | 8 | 304 | 6.4 | 16.1 | 0.00 | 1.35 | 0.23 | 94 | 1003.8 |
| 20260507083000 | 8 | 309 | 6.4 | 14.5 | 0.00 | 1.35 | 0.23 | 94 | 1003.9 |
| 20260507081958 | 8 | 284 | 8.0 | 16.1 | 0.00 | 1.35 | 0.23 | 94 | 1004.0 |
| 20260507081459 | 8 | 316 | 8.0 | 16.1 | 0.00 | 1.35 | 0.23 | 94 | 1004.0 |
| 20260507080959 | 8 | 319 | 6.4 | 16.1 | 0.00 | 1.35 | 0.23 | 94 | 1003.9 |
| 20260507080459 | 8 | 302 | 6.4 | 17.7 | 0.00 | 1.35 | 0.23 | 94 | 1003.7 |
| 20260507080000 | 8 | 310 | 6.4 | 17.7 | 0.00 | 1.35 | 0.23 | 94 | 1003.8 |
| 20260507075459 | 8 | 303 | 6.4 | 17.7 | 0.00 | 1.35 | 0.23 | 94 | 1003.8 |
| 20260507074959 | 8 | 279 | 6.4 | 17.7 | 0.03 | 1.35 | 0.23 | 94 | 1003.8 |
| 20260507074458 | 8 | 294 | 6.4 | 14.5 | 0.03 | 1.35 | 0.23 | 94 | 1003.8 |
| 20260507074004 | 8 | 311 | 4.8 | 14.5 | 0.03 | 1.35 | 0.23 | 94 | 1003.5 |
| 20260507074000 | 8 | 273 | 4.8 | 14.5 | 0.03 | 1.35 | 0.23 | 94 | 1003.5 |
| 20260507072959 | 8 | 322 | 4.8 | 14.5 | 0.05 | 1.35 | 0.23 | 94 | 1003.3 |
| 20260507072500 | 8 | 292 | 4.8 | 14.5 | 0.08 | 1.35 | 0.23 | 94 | 1003.4 |
| 20260507071958 | 8 | 296 | 3.2 | 8.0 | 0.13 | 1.35 | 0.23 | 95 | 1003.2 |
| 20260507071730 | 8 | 322 | 3.2 | 14.5 | 0.15 | 1.35 | 0.23 | 94 | 1003.0 |
| 20260507071229 | 8 | 302 | 4.8 | 14.5 | 0.18 | 1.35 | 0.23 | 94 | 1002.8 |
| 20260507070501 | 8 | 269 | 4.8 | 14.5 | 0.18 | 1.35 | 0.23 | 95 | 1003.1 |
| 20260507065958 | 8 | 276 | 4.8 | 14.5 | 0.18 | 1.35 | 0.23 | 95 | 1003.2 |
| 20260507065730 | 8 | 288 | 6.4 | 14.5 | 0.20 | 1.35 | 0.23 | 94 | 1003.0 |
| 20260507064959 | 8 | 252 | 8.0 | 14.5 | 0.18 | 1.32 | 0.20 | 94 | 1003.3 |
| 20260507064500 | 8 | 257 | 6.4 | 14.5 | 0.18 | 1.32 | 0.20 | 94 | 1003.2 |
| 20260507063958 | 8 | 275 | 6.4 | 20.9 | 0.18 | 1.32 | 0.20 | 94 | 1003.1 |
| 20260507063501 | 8 | 273 | 8.0 | 20.9 | 0.20 | 1.32 | 0.20 | 94 | 1003.2 |
| 20260507063231 | 8 | 294 | 8.0 | 20.9 | 0.18 | 1.30 | 0.18 | 94 | 1003.3 |
| 20260507062458 | 8 | 232 | 9.7 | 20.9 | 0.15 | 1.27 | 0.15 | 94 | 1003.5 |
| 20260507061958 | 8 | 244 | 9.7 | 17.7 | 0.10 | 1.22 | 0.10 | 94 | 1003.4 |
| 20260507061459 | 8 | 232 | 9.7 | 19.3 | 0.08 | 1.19 | 0.08 | 94 | 1003.3 |
| 20260507061230 | 8 | 256 | 8.0 | 19.3 | 0.05 | 1.17 | 0.08 | 94 | 1003.4 |
| 20260507060731 | 8 | 240 | 9.7 | 19.3 | 0.05 | 1.17 | 0.05 | 94 | 1003.3 |
| 20260507055959 | 8 | 272 | 9.7 | 19.3 | 0.05 | 1.17 | 0.05 | 94 | 1003.6 |
| 20260507055729 | 8 | 294 | 9.7 | 19.3 | 0.03 | 1.14 | 0.05 | 94 | 1003.9 |
| 20260507055001 | 8 | 243 | 11.3 | 25.7 | 0.03 | 1.14 | 0.03 | 94 | 1003.7 |
| 20260507054459 | 8 | 223 | 11.3 | 25.7 | 0.03 | 1.14 | 0.03 | 94 | 1003.6 |
| 20260507054000 | 8 | 205 | 11.3 | 27.4 | 0.03 | 1.14 | 0.03 | 94 | 1003.7 |
| 20260507053500 | 8 | 232 | 8.0 | 27.4 | 0.00 | 1.12 | 0.00 | 94 | 1003.9 |
| 20260507053000 | 8 | 251 | 9.7 | 29.0 | 0.00 | 1.12 | 0.00 | 94 | 1003.8 |
| 20260507052459 | 8 | 280 | 12.9 | 29.0 | 0.00 | 1.12 | 0.00 | 94 | 1003.9 |
| 20260507052001 | 8 | 216 | 14.5 | 27.4 | 0.00 | 1.12 | 0.00 | 94 | 1003.6 |
| 20260507051500 | 8 | 209 | 14.5 | 30.6 | 0.00 | 1.12 | 0.00 | 94 | 1003.7 |
| 20260507051000 | 8 | 268 | 14.5 | 30.6 | 0.00 | 1.12 | 0.00 | 94 | 1003.7 |
| 20260507050459 | 8 | 249 | 14.5 | 30.6 | 0.00 | 1.12 | 0.00 | 94 | 1003.7 |
| 20260507045959 | 8 | 250 | 14.5 | 30.6 | 0.00 | 1.12 | 0.00 | 94 | 1003.8 |
| 20260507045458 | 8 | 205 | 14.5 | 29.0 | 0.00 | 1.12 | 0.00 | 94 | 1003.8 |
| 20260507044959 | 8 | 225 | 12.9 | 29.0 | 0.00 | 1.12 | 0.00 | 94 | 1003.7 |
| 20260507044458 | 8 | 178 | 11.3 | 32.2 | 0.00 | 1.12 | 0.00 | 94 | 1003.8 |
| 20260507044231 | 8 | 204 | 12.9 | 32.2 | 0.00 | 1.12 | 0.00 | 94 | 1003.7 |
| 20260507044121 | 8 | 245 | 14.5 | 37.0 | 0.00 | 1.12 | 0.00 | 94 | 1003.7 |
| 20260507043231 | 8 | 202 | 16.1 | 37.0 | 0.00 | 1.12 | 0.00 | 94 | 1003.7 |
| 20260507042458 | 8 | 213 | 19.3 | 37.0 | 0.00 | 1.12 | 0.00 | 94 | 1003.7 |
| 20260507041959 | 8 | 207 | 19.3 | 37.0 | 0.03 | 1.12 | 0.00 | 94 | 1003.8 |
| 20260507041500 | 8 | 238 | 17.7 | 35.4 | 0.03 | 1.12 | 0.00 | 94 | 1003.9 |
| 20260507040959 | 8 | 212 | 19.3 | 35.4 | 0.03 | 1.12 | 0.00 | 94 | 1003.9 |
| 20260507040459 | 8 | 186 | 19.3 | 35.4 | 0.03 | 1.12 | 0.00 | 94 | 1003.9 |
| 20260507040000 | 8 | 244 | 20.9 | 41.8 | 0.03 | 1.12 | 1.12 | 94 | 1004.1 |
| 20260507035458 | 8 | 228 | 19.3 | 41.8 | 0.03 | 1.12 | 1.12 | 94 | 1004.1 |
| 20260507035000 | 9 | 196 | 20.9 | 41.8 | 0.05 | 1.12 | 1.12 | 94 | 1004.0 |
| 20260507034459 | 9 | 202 | 20.9 | 41.8 | 0.05 | 1.12 | 1.12 | 94 | 1004.1 |
| 20260507033958 | 9 | 192 | 22.5 | 45.1 | 0.08 | 1.12 | 1.12 | 94 | 1004.2 |
| 20260507033459 | 9 | 189 | 20.9 | 45.1 | 0.08 | 1.12 | 1.12 | 94 | 1004.1 |
| 20260507033231 | 9 | 236 | 20.9 | 41.8 | 0.10 | 1.12 | 1.12 | 94 | 1004.3 |
| 20260507032458 | 8 | 195 | 22.5 | 41.8 | 0.13 | 1.12 | 1.12 | 94 | 1004.1 |
| 20260507031958 | 8 | 168 | 22.5 | 38.6 | 0.13 | 1.09 | 1.09 | 94 | 1004.4 |
| 20260507031500 | 8 | 191 | 22.5 | 38.6 | 0.15 | 1.09 | 1.09 | 94 | 1004.6 |
| 20260507030958 | 8 | 205 | 20.9 | 38.6 | 0.18 | 1.09 | 1.09 | 94 | 1004.7 |
| 20260507030459 | 8 | 209 | 20.9 | 38.6 | 0.23 | 1.09 | 1.09 | 94 | 1004.7 |
| 20260507025957 | 8 | 202 | 19.3 | 35.4 | 0.28 | 1.09 | 1.09 | 94 | 1004.8 |
| 20260507025457 | 8 | 155 | 17.7 | 35.4 | 0.33 | 1.09 | 1.09 | 94 | 1004.9 |
| 20260507024956 | 8 | 175 | 17.7 | 33.8 | 0.41 | 1.07 | 1.07 | 94 | 1004.9 |
| 20260507024456 | 8 | 177 | 17.7 | 33.8 | 0.48 | 1.07 | 1.07 | 94 | 1004.9 |
| 20260507023956 | 7 | 182 | 16.1 | 33.8 | 0.51 | 1.04 | 1.04 | 94 | 1005.1 |
| 20260507023727 | 7 | 182 | 16.1 | 30.6 | 0.56 | 1.04 | 1.04 | 94 | 1005.2 |
| 20260507022956 | 7 | 196 | 16.1 | 32.2 | 0.61 | 1.02 | 1.02 | 93 | 1005.3 |
| 20260507022500 | 7 | 186 | 14.5 | 32.2 | 0.61 | 0.99 | 1.02 | 93 | 1005.4 |
| 20260507021957 | 8 | 184 | 16.1 | 30.6 | 0.61 | 0.97 | 0.97 | 93 | 1005.3 |
| 20260507021458 | 8 | 194 | 16.1 | 29.0 | 0.61 | 0.94 | 0.94 | 93 | 1005.5 |
| 20260507020956 | 8 | 185 | 14.5 | 30.6 | 0.66 | 0.91 | 0.91 | 93 | 1005.6 |
| 20260507020457 | 8 | 190 | 17.7 | 37.0 | 0.64 | 0.86 | 0.86 | 93 | 1005.7 |
| 20260507015958 | 8 | 178 | 19.3 | 37.0 | 0.58 | 0.81 | 0.81 | 93 | 1005.8 |
| 20260507015729 | 8 | 142 | 19.3 | 35.4 | 0.56 | 0.76 | 0.76 | 93 | 1005.9 |
| 20260507014957 | 8 | 175 | 19.3 | 35.4 | 0.48 | 0.66 | 0.69 | 93 | 1006.1 |
| 20260507014456 | 8 | 187 | 19.3 | 41.8 | 0.43 | 0.58 | 0.61 | 93 | 1006.2 |
| 20260507013958 | 8 | 181 | 17.7 | 41.8 | 0.41 | 0.53 | 0.53 | 93 | 1006.4 |
| 20260507013456 | 8 | 153 | 14.5 | 32.2 | 0.38 | 0.48 | 0.48 | 93 | 1006.5 |
| 20260507012957 | 8 | 185 | 14.5 | 32.2 | 0.33 | 0.41 | 0.43 | 93 | 1006.7 |
| 20260507012455 | 8 | 187 | 16.1 | 32.2 | 0.30 | 0.38 | 0.38 | 93 | 1006.6 |
| 20260507011454 | 8 | 196 | 16.1 | 32.2 | 0.25 | 0.33 | 0.33 | 93 | 1006.9 |
| 20260507010954 | 8 | 213 | 16.1 | 35.4 | 0.18 | 0.25 | 0.28 | 93 | 1007.0 |
| 20260507010454 | 8 | 170 | 17.7 | 37.0 | 0.18 | 0.23 | 0.23 | 93 | 1007.0 |
| 20260507005954 | 8 | 185 | 17.7 | 37.0 | 0.20 | 0.23 | 0.23 | 93 | 1007.1 |
| 20260507005454 | 8 | 192 | 17.7 | 35.4 | 0.18 | 0.20 | 0.20 | 93 | 1007.2 |
| 20260507004954 | 8 | 172 | 16.1 | 35.4 | 0.18 | 0.18 | 0.18 | 93 | 1007.2 |
| 20260507004728 | 8 | 174 | 16.1 | 35.4 | 0.15 | 0.15 | 0.15 | 93 | 1007.2 |
| 20260507003952 | 8 | 161 | 17.7 | 35.4 | 0.13 | 0.13 | 0.13 | 93 | 1007.5 |
| 20260507003453 | 8 | 211 | 16.1 | 35.4 | 0.10 | 0.10 | 0.10 | 92 | 1007.6 |
| 20260507002952 | 8 | 170 | 17.7 | 35.4 | 0.08 | 0.08 | 0.08 | 92 | 1007.6 |
| 20260507002453 | 8 | 192 | 17.7 | 33.8 | 0.08 | 0.08 | 0.08 | 92 | 1007.7 |
| 20260507001952 | 8 | 182 | 16.1 | 33.8 | 0.08 | 0.08 | 0.08 | 92 | 1007.7 |
| 20260507001453 | 8 | 188 | 16.1 | 33.8 | 0.08 | 0.08 | 0.08 | 92 | 1007.8 |
| 20260507000952 | 8 | 181 | 16.1 | 33.8 | 0.08 | 0.08 | 0.08 | 92 | 1007.7 |
| 20260507000457 | 8 | 225 | 14.5 | 32.2 | 0.03 | 0.03 | 0.03 | 92 | 1007.7 |
| 20260507000453 | 8 | 227 | 14.5 | 32.2 | 0.05 | 0.05 | 0.05 | 92 | 1007.7 |
| 20260506235451 | 8 | 183 | 16.1 | 30.6 | 0.03 | 0.03 | 0.03 | 92 | 1008.0 |
| 20260506234950 | 8 | 201 | 16.1 | 30.6 | 0.00 | 0.00 | 0.00 | 92 | 1007.9 |
| 20260506234449 | 8 | 196 | 16.1 | 30.6 | 0.00 | 0.00 | 0.00 | 92 | 1008.0 |
| 20260506233948 | 8 | 215 | 16.1 | 30.6 | 0.00 | 0.00 | 0.00 | 92 | 1007.7 |
| 20260506233447 | 8 | 189 | 16.1 | 30.6 | 0.00 | 0.00 | 0.00 | 92 | 1008.0 |
| 20260506233221 | 8 | 174 | 14.5 | 30.6 | 0.00 | 0.00 | 0.00 | 92 | 1008.1 |
| 20260506232718 | 8 | 200 | 14.5 | 30.6 | 0.00 | 0.00 | 0.00 | 92 | 1007.9 |
| 20260506232219 | 8 | 225 | 14.5 | 30.6 | 0.00 | 0.00 | 0.00 | 92 | 1008.0 |
| 20260506231720 | 8 | 198 | 14.5 | 37.0 | 0.00 | 0.00 | 0.00 | 92 | 1008.0 |
| 20260506231218 | 8 | 182 | 14.5 | 37.0 | 0.00 | 0.00 | 0.00 | 92 | 1008.1 |
| 20260506230446 | 8 | 197 | 12.9 | 29.0 | 0.00 | 0.00 | 0.00 | 92 | 1008.0 |
| 20260506230217 | 8 | 190 | 14.5 | 29.0 | 0.00 | 0.00 | 0.00 | 92 | 1007.9 |
| 20260506225446 | 8 | 172 | 16.1 | 35.4 | 0.00 | 0.00 | 0.00 | 92 | 1007.6 |
| 20260506225218 | 8 | 197 | 17.7 | 35.4 | 0.00 | 0.00 | 0.00 | 92 | 1008.2 |
| 20260506224447 | 8 | 180 | 16.1 | 35.4 | 0.00 | 0.00 | 0.00 | 92 | 1008.2 |
| 20260506223945 | 8 | 174 | 16.1 | 35.4 | 0.00 | 0.00 | 0.00 | 92 | 1008.4 |
| 20260506223447 | 8 | 204 | 16.1 | 35.4 | 0.00 | 0.00 | 0.00 | 91 | 1008.5 |
| 20260506223218 | 8 | 188 | 14.5 | 30.6 | 0.00 | 0.00 | 0.00 | 91 | 1008.7 |
| 20260506223109 | 8 | 183 | 14.5 | 35.4 | 0.00 | 0.00 | 0.00 | 91 | 1008.4 |
| 20260506221946 | 8 | 203 | 14.5 | 35.4 | 0.00 | 0.00 | 0.00 | 91 | 1008.9 |
| 20260506221446 | 9 | 207 | 17.7 | 38.6 | 0.00 | 0.00 | 0.00 | 91 | 1008.8 |
| 20260506220947 | 9 | 186 | 19.3 | 38.6 | 0.00 | 0.00 | 0.00 | 91 | 1008.9 |
| 20260506220719 | 9 | 184 | 20.9 | 41.8 | 0.00 | 0.00 | 0.00 | 91 | 1009.0 |
| 20260506215947 | 9 | 158 | 19.3 | 41.8 | 0.00 | 0.00 | 0.00 | 91 | 1009.0 |
| 20260506215445 | 9 | 182 | 19.3 | 45.1 | 0.00 | 0.00 | 0.00 | 91 | 1009.0 |
| 20260506214946 | 9 | 207 | 20.9 | 45.1 | 0.00 | 0.00 | 0.00 | 91 | 1009.1 |
| 20260506214718 | 9 | 178 | 19.3 | 38.6 | 0.00 | 0.00 | 0.00 | 91 | 1009.0 |
| 20260506213947 | 9 | 191 | 16.1 | 35.4 | 0.00 | 0.00 | 0.00 | 91 | 1009.1 |
| 20260506213447 | 9 | 191 | 16.1 | 37.0 | 0.00 | 0.00 | 0.00 | 91 | 1009.3 |
| 20260506212948 | 10 | 228 | 17.7 | 37.0 | 0.00 | 0.00 | 0.00 | 90 | 1009.3 |
| 20260506212447 | 10 | 157 | 19.3 | 37.0 | 0.00 | 0.00 | 0.00 | 91 | 1009.1 |
| 20260506212218 | 10 | 196 | 17.7 | 37.0 | 0.00 | 0.00 | 0.00 | 90 | 1009.1 |
| 20260506211720 | 10 | 198 | 16.1 | 40.2 | 0.00 | 0.00 | 0.00 | 90 | 1009.0 |
| 20260506210947 | 10 | 193 | 17.7 | 40.2 | 0.00 | 0.00 | 0.00 | 91 | 1009.1 |
| 20260506210718 | 10 | 219 | 19.3 | 41.8 | 0.00 | 0.00 | 0.00 | 91 | 1009.3 |
| 20260506205944 | 9 | 202 | 17.7 | 41.8 | 0.00 | 0.00 | 0.00 | 91 | 1009.3 |
| 20260506205443 | 9 | 192 | 17.7 | 40.2 | 0.00 | 0.00 | 0.00 | 91 | 1009.3 |
| 20260506204944 | 8 | 179 | 17.7 | 40.2 | 0.00 | 0.00 | 0.00 | 91 | 1009.0 |
| 20260506204445 | 8 | 202 | 19.3 | 40.2 | 0.00 | 0.00 | 0.00 | 91 | 1008.6 |
| 20260506203941 | 8 | 171 | 19.3 | 37.0 | 0.00 | 0.00 | 0.00 | 91 | 1008.6 |
| 20260506203443 | 8 | 194 | 19.3 | 37.0 | 0.00 | 0.00 | 0.00 | 91 | 1008.6 |
| 20260506202942 | 8 | 192 | 19.3 | 37.0 | 0.00 | 0.00 | 0.00 | 90 | 1008.3 |
| 20260506202442 | 9 | 200 | 20.9 | 40.2 | 0.00 | 0.00 | 0.00 | 90 | 1008.2 |
| 20260506201942 | 9 | 143 | 22.5 | 40.2 | 0.00 | 0.00 | 0.00 | 91 | 1008.3 |
| 20260506201713 | 9 | 156 | 20.9 | 45.1 | 0.00 | 0.00 | 0.00 | 90 | 1008.3 |
| 20260506200941 | 9 | 197 | 20.9 | 45.1 | 0.00 | 0.00 | 0.00 | 90 | 1008.3 |
| 20260506200442 | 9 | 184 | 20.9 | 43.5 | 0.00 | 0.00 | 0.00 | 90 | 1008.2 |
| 20260506200212 | 9 | 184 | 19.3 | 43.5 | 0.00 | 0.00 | 0.00 | 90 | 1008.1 |
| 20260506195441 | 9 | 198 | 19.3 | 37.0 | 0.00 | 0.00 | 0.00 | 90 | 1008.2 |
| 20260506194941 | 10 | 184 | 19.3 | 37.0 | 0.00 | 0.00 | 0.00 | 89 | 1008.4 |
| 20260506194711 | 10 | 205 | 19.3 | 45.1 | 0.00 | 0.00 | 0.00 | 89 | 1008.4 |
| 20260506193941 | 10 | 214 | 19.3 | 45.1 | 0.00 | 0.00 | 0.00 | 89 | 1008.7 |
| 20260506193712 | 10 | 189 | 17.7 | 37.0 | 0.00 | 0.00 | 0.00 | 89 | 1008.8 |
| 20260506193214 | 10 | 189 | 19.3 | 35.4 | 0.00 | 0.00 | 0.00 | 89 | 1008.9 |
| 20260506192442 | 10 | 193 | 19.3 | 35.4 | 0.00 | 0.00 | 0.00 | 89 | 1008.9 |
| 20260506191941 | 10 | 196 | 17.7 | 33.8 | 0.00 | 0.00 | 0.00 | 88 | 1008.9 |
| 20260506191443 | 10 | 180 | 17.7 | 33.8 | 0.00 | 0.00 | 0.00 | 88 | 1009.0 |
| 20260506190943 | 10 | 186 | 16.1 | 32.2 | 0.00 | 0.00 | 0.00 | 89 | 1009.0 |
| 20260506190442 | 10 | 190 | 16.1 | 32.2 | 0.00 | 0.00 | 0.00 | 89 | 1009.0 |
| 20260506185940 | 10 | 199 | 14.5 | 30.6 | 0.00 | 0.00 | 0.00 | 89 | 1009.2 |
| 20260506185441 | 10 | 215 | 16.1 | 33.8 | 0.00 | 0.00 | 0.00 | 88 | 1009.2 |
| 20260506185213 | 10 | 205 | 17.7 | 33.8 | 0.00 | 0.00 | 0.00 | 89 | 1009.3 |
| 20260506184441 | 10 | 182 | 14.5 | 29.0 | 0.00 | 0.00 | 0.00 | 89 | 1009.3 |
| 20260506183940 | 10 | 215 | 12.9 | 29.0 | 0.00 | 0.00 | 0.00 | 89 | 1009.5 |
| 20260506183447 | 10 | 205 | 9.7 | 32.2 | 0.00 | 0.00 | 0.00 | 89 | 1009.6 |
| 20260506183442 | 10 | 193 | 11.3 | 29.0 | 0.00 | 0.00 | 0.00 | 89 | 1009.5 |
| 20260506183102 | 10 | 179 | 9.7 | 32.2 | 0.00 | 0.00 | 0.00 | 89 | 1009.6 |
| 20260506181942 | 10 | 165 | 9.7 | 22.5 | 0.00 | 0.00 | 0.00 | 88 | 1009.7 |
| 20260506181713 | 10 | 179 | 9.7 | 22.5 | 0.00 | 0.00 | 0.00 | 88 | 1009.8 |
| 20260506180941 | 10 | 174 | 9.7 | 22.5 | 0.00 | 0.00 | 0.00 | 88 | 1009.8 |
| 20260506180441 | 10 | 170 | 9.7 | 22.5 | 0.00 | 0.00 | 0.00 | 88 | 1009.8 |
| 20260506175940 | 10 | 200 | 9.7 | 22.5 | 0.00 | 0.00 | 0.00 | 88 | 1010.0 |
| 20260506175442 | 11 | 185 | 11.3 | 22.5 | 0.00 | 0.00 | 0.00 | 88 | 1010.0 |
| 20260506174940 | 11 | 217 | 12.9 | 24.1 | 0.00 | 0.00 | 0.00 | 88 | 1010.1 |
| 20260506174441 | 11 | 173 | 12.9 | 33.8 | 0.00 | 0.00 | 0.00 | 87 | 1010.0 |
| 20260506173940 | 11 | 181 | 12.9 | 33.8 | 0.00 | 0.00 | 0.00 | 88 | 1010.1 |
| 20260506173440 | 11 | 196 | 12.9 | 33.8 | 0.00 | 0.00 | 0.00 | 87 | 1010.1 |
| 20260506172937 | 11 | 187 | 14.5 | 33.8 | 0.00 | 0.00 | 0.00 | 87 | 1010.2 |
| 20260506172435 | 11 | 200 | 16.1 | 33.8 | 0.00 | 0.00 | 0.00 | 88 | 1010.3 |
| 20260506171935 | 11 | 200 | 16.1 | 33.8 | 0.00 | 0.00 | 0.00 | 87 | 1010.3 |
| 20260506171436 | 11 | 222 | 16.1 | 35.4 | 0.00 | 0.00 | 0.00 | 87 | 1010.3 |
| 20260506171206 | 11 | 187 | 17.7 | 35.4 | 0.00 | 0.00 | 0.00 | 87 | 1010.2 |
| 20260506170432 | 11 | 208 | 14.5 | 29.0 | 0.00 | 0.00 | 0.00 | 87 | 1010.4 |
| 20260506165932 | 11 | 157 | 12.9 | 27.4 | 0.00 | 0.00 | 0.00 | 86 | 1010.5 |
| 20260506165703 | 11 | 201 | 12.9 | 27.4 | 0.00 | 0.00 | 0.00 | 86 | 1010.7 |
| 20260506165205 | 11 | 259 | 14.5 | 32.2 | 0.00 | 0.00 | 0.00 | 87 | 1011.0 |
| 20260506164432 | 11 | 221 | 14.5 | 32.2 | 0.00 | 0.00 | 0.00 | 87 | 1010.9 |
| 20260506163931 | 11 | 248 | 14.5 | 29.0 | 0.00 | 0.00 | 0.00 | 88 | 1010.9 |
| 20260506163432 | 11 | 84 | 16.1 | 29.0 | 0.00 | 0.00 | 0.00 | 88 | 1010.9 |
| 20260506162931 | 11 | 228 | 16.1 | 35.4 | 0.00 | 0.00 | 0.00 | 88 | 1011.0 |
| 20260506162703 | 11 | 196 | 16.1 | 35.4 | 0.00 | 0.00 | 0.00 | 88 | 1011.1 |
| 20260506161932 | 11 | 192 | 17.7 | 37.0 | 0.00 | 0.00 | 0.00 | 88 | 1011.1 |
| 20260506161429 | 11 | 202 | 19.3 | 41.8 | 0.00 | 0.00 | 0.00 | 89 | 1011.0 |
| 20260506160926 | 10 | 176 | 16.1 | 41.8 | 0.00 | 0.00 | 0.00 | 89 | 1011.0 |
| 20260506160427 | 10 | 202 | 14.5 | 30.6 | 0.00 | 0.00 | 0.00 | 89 | 1010.9 |
| 20260506155926 | 10 | 205 | 14.5 | 29.0 | 0.00 | 0.00 | 0.00 | 89 | 1010.8 |